Tracking 20624 objects as of 28-Mar-2020
HD Live streaming from Space Station
objects crossing your sky now

DODECAPOLE 2 DEB

Track DODECAPOLE 2 DEB now!
10-day predictions


NORAD ID: 41734
Int'l Code: 2016-051D
Perigee: 881.5 km
Apogee: 942.6 km
Inclination: 90.0 °
Period: 103.1 minutes
Semi major axis: 7283 km
RCS: Unknown
Launch date: August 15, 2016
Source: United States (US)
Launch site: Jiuquan Satellite Launch Center, China (JSC)

Note: This is SATELLITE DEBRIS
aabbcc
Your satellite tracking list
Your tracking list is empty




NASA's NSSDC Master Catalog

Two Line Element Set (TLE):
1 41734U 65065U   20088.21734430 +.00000974 +00000-0 +68898-3 0  9995
2 41734 090.0292 014.2453 0041946 123.6494 236.8695 13.96789283217257
Source of the keplerian elements: AFSPC